| time (UTC) | temp C | wind direction | speed KPH | gust KPH | rain 1hr cm | rain 24hr cm | rain mn cm | humidity % | barometer mb |
| 20260506134501 | 13 | 24 | 16.1 | 20.9 | 0.00 | 0.25 | 0.00 | 64 | 1016.4 |
| 20260506134000 | 13 | 321 | 4.8 | 16.1 | 0.00 | 0.25 | 0.00 | 64 | 1016.4 |
| 20260506133500 | 14 | 33 | 6.4 | 16.1 | 0.00 | 0.25 | 0.00 | 63 | 1016.4 |
| 20260506133001 | 13 | 44 | 9.7 | 16.1 | 0.00 | 0.25 | 0.00 | 63 | 1016.4 |
| 20260506131959 | 13 | 41 | 16.1 | 19.3 | 0.00 | 0.25 | 0.00 | 63 | 1016.5 |
| 20260506131459 | 13 | 46 | 9.7 | 17.7 | 0.00 | 0.25 | 0.00 | 63 | 1016.4 |
| 20260506130959 | 13 | 27 | 0.0 | 17.7 | 0.00 | 0.25 | 0.00 | 63 | 1016.4 |
| 20260506130500 | 13 | 51 | 0.0 | 19.3 | 0.00 | 0.25 | 0.00 | 62 | 1016.4 |
| 20260506130002 | 14 | 42 | 8.0 | 19.3 | 0.00 | 0.25 | 0.00 | 63 | 1016.5 |
| 20260506125500 | 14 | 13 | 11.3 | 19.3 | 0.00 | 0.25 | 0.00 | 65 | 1016.5 |
| 20260506125000 | 14 | 23 | 4.8 | 17.7 | 0.00 | 0.25 | 0.00 | 62 | 1016.4 |
| 20260506124500 | 13 | 31 | 9.7 | 17.7 | 0.00 | 0.25 | 0.00 | 63 | 1016.5 |
| 20260506124003 | 14 | 45 | 16.1 | 19.3 | 0.00 | 0.25 | 0.00 | 60 | 1016.4 |
| 20260506123501 | 15 | 37 | 9.7 | 22.5 | 0.00 | 0.25 | 0.00 | 63 | 1016.4 |
| 20260506123001 | 15 | 69 | 14.5 | 22.5 | 0.00 | 0.25 | 0.00 | 68 | 1016.5 |
| 20260506122000 | 14 | 232 | 3.2 | 11.3 | 0.00 | 0.25 | 0.00 | 61 | 1016.4 |
| 20260506121502 | 15 | 205 | 4.8 | 17.7 | 0.00 | 0.25 | 0.00 | 62 | 1016.4 |
| 20260506120959 | 15 | 219 | 3.2 | 16.1 | 0.00 | 0.25 | 0.00 | 62 | 1016.3 |
| 20260506120500 | 15 | 256 | 4.8 | 11.3 | 0.00 | 0.25 | 0.00 | 61 | 1016.4 |
| 20260506120000 | 15 | 59 | 3.2 | 22.5 | 0.00 | 0.25 | 0.00 | 62 | 1016.3 |
| 20260506115000 | 15 | 312 | 8.0 | 16.1 | 0.00 | 0.25 | 0.00 | 60 | 1016.5 |
| 20260506114501 | 14 | 218 | 6.4 | 16.1 | 0.00 | 0.25 | 0.00 | 60 | 1016.4 |
| 20260506114000 | 14 | 274 | 9.7 | 16.1 | 0.00 | 0.25 | 0.00 | 65 | 1016.5 |
| 20260506113502 | 13 | 297 | 4.8 | 11.3 | 0.00 | 0.25 | 0.00 | 68 | 1016.7 |
| 20260506112501 | 13 | 217 | 9.7 | 14.5 | 0.00 | 0.25 | 0.00 | 65 | 1016.8 |
| 20260506111959 | 13 | 219 | 11.3 | 14.5 | 0.00 | 0.25 | 0.00 | 63 | 1016.8 |
| 20260506111500 | 13 | 189 | 3.2 | 17.7 | 0.00 | 0.25 | 0.00 | 65 | 1016.7 |
| 20260506111003 | 13 | 204 | 4.8 | 17.7 | 0.00 | 0.25 | 0.00 | 65 | 1016.9 |
| 20260506105959 | 13 | 84 | 3.2 | 14.5 | 0.00 | 0.25 | 0.00 | 64 | 1016.9 |
| 20260506104959 | 13 | 228 | 9.7 | 14.5 | 0.00 | 0.25 | 0.00 | 61 | 1016.9 |
| 20260506104459 | 13 | 92 | 1.6 | 14.5 | 0.00 | 0.25 | 0.00 | 62 | 1017.1 |
| 20260506103959 | 13 | 239 | 9.7 | 14.5 | 0.00 | 0.25 | 0.00 | 63 | 1017.0 |
| 20260506102959 | 13 | 329 | 4.8 | 17.7 | 0.00 | 0.25 | 0.00 | 64 | 1017.2 |
| 20260506102459 | 12 | 303 | 1.6 | 17.7 | 0.00 | 0.25 | 0.00 | 64 | 1017.2 |
| 20260506102000 | 12 | 53 | 16.1 | 17.7 | 0.00 | 0.25 | 0.00 | 68 | 1017.1 |
| 20260506101459 | 12 | 40 | 11.3 | 17.7 | 0.00 | 0.25 | 0.00 | 70 | 1017.3 |
| 20260506100958 | 12 | 28 | 4.8 | 17.7 | 0.00 | 0.25 | 0.00 | 64 | 1017.2 |
| 20260506100459 | 12 | 333 | 3.2 | 17.7 | 0.00 | 0.25 | 0.00 | 63 | 1017.3 |
| 20260506100001 | 12 | 338 | 9.7 | 14.5 | 0.00 | 0.25 | 0.00 | 64 | 1017.3 |
| 20260506095458 | 12 | 63 | 6.4 | 12.9 | 0.00 | 0.25 | 0.00 | 72 | 1017.2 |
| 20260506095000 | 12 | 68 | 3.2 | 11.3 | 0.00 | 0.25 | 0.00 | 65 | 1017.2 |
| 20260506094501 | 12 | 242 | 4.8 | 9.7 | 0.00 | 0.25 | 0.00 | 62 | 1017.2 |
| 20260506093959 | 12 | 242 | 6.4 | 11.3 | 0.00 | 0.25 | 0.00 | 62 | 1017.1 |
| 20260506093500 | 12 | 263 | 4.8 | 12.9 | 0.00 | 0.25 | 0.00 | 60 | 1017.1 |
| 20260506092501 | 13 | 56 | 6.4 | 6.4 | 0.00 | 0.25 | 0.00 | 63 | 1017.1 |
| 20260506092002 | 12 | 127 | 3.2 | 12.9 | 0.00 | 0.25 | 0.00 | 70 | 1017.1 |
| 20260506091500 | 12 | 313 | 3.2 | 12.9 | 0.00 | 0.25 | 0.00 | 66 | 1017.1 |
| 20260506090000 | 12 | 65 | 3.2 | 9.7 | 0.00 | 0.25 | 0.00 | 67 | 1016.9 |
| 20260506085500 | 12 | 61 | 3.2 | 8.0 | 0.00 | 0.25 | 0.00 | 72 | 1016.9 |
| 20260506085001 | 11 | 57 | 6.4 | 8.0 | 0.00 | 0.25 | 0.00 | 68 | 1016.9 |
| 20260506083459 | 11 | 55 | 1.6 | 4.8 | 0.00 | 0.25 | 0.00 | 75 | 1016.9 |
| 20260506083001 | 11 | 40 | 1.6 | 4.8 | 0.00 | 0.25 | 0.00 | 73 | 1017.0 |
| 20260506082501 | 11 | 71 | 3.2 | 3.2 | 0.00 | 0.25 | 0.00 | 77 | 1017.1 |
| 20260506081958 | 10 | 55 | 0.0 | 3.2 | 0.00 | 0.25 | 0.00 | 74 | 1017.1 |
| 20260506081501 | 10 | 91 | 1.6 | 4.8 | 0.00 | 0.25 | 0.00 | 76 | 1017.1 |
| 20260506081002 | 10 | 120 | 3.2 | 6.4 | 0.00 | 0.25 | 0.00 | 73 | 1017.1 |
| 20260506080459 | 10 | 68 | 3.2 | 6.4 | 0.00 | 0.25 | 0.00 | 76 | 1017.2 |
| 20260506073500 | 7 | 177 | 1.6 | 3.2 | 0.00 | 0.25 | 0.00 | 90 | 1017.3 |
| 20260506071959 | 7 | 44 | 1.6 | 3.2 | 0.00 | 0.25 | 0.00 | 90 | 1017.3 |
| 20260506070459 | 8 | 44 | 0.0 | 3.2 | 0.00 | 0.25 | 0.00 | 89 | 1017.2 |
| 20260506062458 | 7 | 45 | 1.6 | 4.8 | 0.00 | 0.25 | 0.00 | 94 | 1017.2 |
| 20260506062004 | 7 | 45 | 3.2 | 3.2 | 0.00 | 0.25 | 0.00 | 94 | 1017.2 |
| 20260506061001 | 7 | 232 | 0.0 | 3.2 | 0.00 | 0.25 | 0.00 | 95 | 1017.1 |
| 20260506060502 | 7 | 232 | 0.0 | 3.2 | 0.00 | 0.25 | 0.00 | 95 | 1017.1 |
| 20260506050958 | -17 | 0.0 | 0.0 | 0.00 | 0.25 | 0.00 | 1016.8 | ||
| 20260506050458 | -17 | 0.0 | 0.0 | 0.00 | 0.25 | 0.00 | 1016.7 | ||
| 20260506044958 | -17 | 0.0 | 0.0 | 0.00 | 0.25 | 0.00 | 1016.7 | ||
| 20260506044459 | -17 | 0.0 | 0.0 | 0.00 | 0.25 | 0.00 | 1016.6 | ||
| 20260506043958 | -17 | 0.0 | 0.0 | 0.00 | 0.25 | 0.00 | 1016.6 | ||
| 20260506043458 | -17 | 0.0 | 0.0 | 0.00 | 0.25 | 0.00 | 1016.6 | ||
| 20260506042958 | -17 | 0.0 | 0.0 | 0.00 | 0.25 | 0.00 | 1016.5 | ||
| 20260506042458 | -17 | 0.0 | 0.0 | 0.00 | 0.25 | 0.00 | 1016.5 | ||
| 20260506041958 | -17 | 0.0 | 0.0 | 0.00 | 0.25 | 0.00 | 1016.5 | ||
| 20260506041458 | -17 | 0.0 | 0.0 | 0.00 | 0.25 | 0.00 | 1016.5 | ||
| 20260506040958 | -17 | 0.0 | 0.0 | 0.00 | 0.25 | 0.00 | 1016.4 | ||
| 20260506040458 | -17 | 0.0 | 0.0 | 0.00 | 0.25 | 0.00 | 1016.4 | ||
| 20260506035959 | -17 | 0.0 | 0.0 | 0.00 | 0.25 | 0.00 | 1016.5 | ||
| 20260506035458 | -17 | 0.0 | 0.0 | 0.00 | 0.25 | 0.00 | 1016.4 | ||
| 20260506033957 | -17 | 0.0 | 0.0 | 0.00 | 0.25 | 0.00 | 1016.4 | ||
| 20260506032958 | -17 | 0.0 | 0.0 | 0.00 | 0.25 | 0.00 | 1016.6 | ||
| 20260506031958 | -17 | 0.0 | 0.0 | 0.00 | 0.25 | 0.00 | 1016.6 | ||
| 20260506031458 | -17 | 0.0 | 0.0 | 0.00 | 0.25 | 0.00 | 1016.6 | ||
| 20260506030958 | -17 | 0.0 | 0.0 | 0.00 | 0.25 | 0.00 | 1016.5 | ||
| 20260506030459 | -17 | 0.0 | 0.0 | 0.00 | 0.25 | 0.00 | 1016.6 | ||
| 20260506025959 | -17 | 0.0 | 0.0 | 0.00 | 0.25 | 0.00 | 1016.6 | ||
| 20260506025458 | -17 | 0.0 | 0.0 | 0.00 | 0.25 | 0.00 | 1016.4 | ||
| 20260506024958 | -17 | 0.0 | 0.0 | 0.00 | 0.25 | 0.00 | 1016.5 | ||
| 20260506024458 | -17 | 0.0 | 0.0 | 0.00 | 0.25 | 0.00 | 1016.5 | ||
| 20260506023958 | -17 | 0.0 | 0.0 | 0.00 | 0.25 | 0.00 | 1016.6 | ||
| 20260506023458 | -17 | 0.0 | 0.0 | 0.00 | 0.25 | 0.00 | 1016.6 | ||
| 20260506022958 | -17 | 0.0 | 0.0 | 0.00 | 0.25 | 0.00 | 1016.6 | ||
| 20260506022458 | -17 | 0.0 | 0.0 | 0.00 | 0.25 | 0.00 | 1016.6 | ||
| 20260506021958 | -17 | 0.0 | 0.0 | 0.00 | 0.25 | 0.00 | 1016.5 | ||
| 20260506021457 | -17 | 0.0 | 0.0 | 0.00 | 0.25 | 0.00 | 1016.4 | ||
| 20260506020958 | -17 | 0.0 | 0.0 | 0.00 | 0.25 | 0.00 | 1016.5 | ||
| 20260506020457 | -17 | 0.0 | 0.0 | 0.00 | 0.25 | 0.00 | 1016.4 | ||
| 20260506015958 | -17 | 0.0 | 0.0 | 0.00 | 0.25 | 0.00 | 1016.4 | ||
| 20260506014456 | -17 | 0.0 | 0.0 | 0.00 | 0.25 | 0.00 | 1016.6 | ||
| 20260506013957 | -17 | 0.0 | 0.0 | 0.00 | 0.25 | 0.00 | 1016.6 | ||
| 20260506013457 | -17 | 0.0 | 0.0 | 0.00 | 0.25 | 0.00 | 1016.6 | ||
| 20260506012958 | -17 | 0.0 | 0.0 | 0.00 | 0.25 | 0.00 | 1016.6 | ||
| 20260506012458 | -17 | 0.0 | 0.0 | 0.00 | 0.25 | 0.00 | 1016.6 | ||
| 20260506011459 | -17 | 0.0 | 0.0 | 0.00 | 0.25 | 0.00 | 1016.7 | ||
| 20260506010457 | -17 | 0.0 | 0.0 | 0.00 | 0.25 | 0.00 | 1016.9 | ||
| 20260506010000 | -17 | 0.0 | 0.0 | 0.00 | 0.25 | 0.00 | 1016.9 | ||
| 20260506005459 | -17 | 0.0 | 0.0 | 0.00 | 0.25 | 0.00 | 1016.9 | ||
| 20260506004958 | -17 | 0.0 | 0.0 | 0.00 | 0.25 | 0.00 | 1016.9 | ||
| 20260506004458 | -17 | 0.0 | 0.0 | 0.00 | 0.25 | 0.00 | 1016.9 | ||
| 20260506004000 | -17 | 0.0 | 0.0 | 0.00 | 0.25 | 0.00 | 1016.9 | ||
| 20260506003457 | -17 | 0.0 | 0.0 | 0.00 | 0.25 | 0.00 | 1016.8 | ||
| 20260506002959 | -17 | 0.0 | 0.0 | 0.00 | 0.25 | 0.00 | 1016.9 | ||
| 20260506002459 | -17 | 0.0 | 0.0 | 0.00 | 0.25 | 0.00 | 1016.9 | ||
| 20260506001958 | -17 | 0.0 | 0.0 | 0.00 | 0.25 | 0.00 | 1017.0 | ||
| 20260506001459 | -17 | 0.0 | 0.0 | 0.00 | 0.25 | 0.00 | 1017.0 | ||
| 20260506000958 | -17 | 0.0 | 0.0 | 0.00 | 0.25 | 0.00 | 1017.1 | ||
| 20260506000458 | -17 | 0.0 | 0.0 | 0.00 | 0.25 | 0.00 | 1017.3 | ||
| 20260505235458 | -17 | 0.0 | 0.0 | 0.00 | 0.25 | 0.00 | 1017.3 | ||
| 20260505234957 | -17 | 0.0 | 0.0 | 0.00 | 0.25 | 0.00 | 1017.4 | ||
| 20260505234458 | -17 | 0.0 | 0.0 | 0.00 | 0.25 | 0.00 | 1017.4 | ||
| 20260505233958 | -17 | 0.0 | 0.0 | 0.00 | 0.25 | 0.00 | 1017.5 | ||
| 20260505233457 | -17 | 0.0 | 0.0 | 0.00 | 0.25 | 0.00 | 1017.6 | ||
| 20260505232957 | -17 | 0.0 | 0.0 | 0.00 | 0.25 | 0.00 | 1017.6 | ||
| 20260505232458 | -17 | 0.0 | 0.0 | 0.00 | 0.25 | 0.00 | 1017.7 | ||
| 20260505231957 | -17 | 0.0 | 0.0 | 0.00 | 0.25 | 0.00 | 1017.6 | ||
| 20260505231457 | -17 | 0.0 | 0.0 | 0.00 | 0.25 | 0.00 | 1017.6 | ||
| 20260505230957 | -17 | 0.0 | 0.0 | 0.00 | 0.25 | 0.00 | 1017.5 | ||
| 20260505230457 | -17 | 0.0 | 0.0 | 0.00 | 0.25 | 0.00 | 1017.7 | ||
| 20260505230000 | -17 | 0.0 | 0.0 | 0.00 | 0.25 | 0.00 | 1017.7 | ||
| 20260505225500 | -17 | 0.0 | 0.0 | 0.00 | 0.28 | 0.00 | 1017.7 | ||
| 20260505225000 | -17 | 0.0 | 0.0 | 0.00 | 0.28 | 0.00 | 1017.7 | ||
| 20260505224500 | -17 | 0.0 | 0.0 | 0.00 | 0.28 | 0.00 | 1017.7 | ||
| 20260505223501 | -17 | 0.0 | 0.0 | 0.00 | 0.28 | 0.00 | 1017.8 | ||
| 20260505222500 | -17 | 0.0 | 0.0 | 0.00 | 0.28 | 0.00 | 1017.8 | ||
| 20260505222002 | -17 | 0.0 | 0.0 | 0.00 | 0.28 | 0.00 | 1017.8 | ||
| 20260505221500 | -17 | 0.0 | 0.0 | 0.00 | 0.28 | 0.00 | 1017.9 | ||
| 20260505221001 | -17 | 0.0 | 0.0 | 0.00 | 0.28 | 0.00 | 1017.9 | ||
| 20260505220501 | -17 | 0.0 | 0.0 | 0.00 | 0.28 | 0.00 | 1017.9 | ||
| 20260505220004 | -17 | 0.0 | 0.0 | 0.00 | 0.28 | 0.00 | 1018.0 | ||
| 20260505215500 | -17 | 0.0 | 0.0 | 0.00 | 0.28 | 0.28 | 1018.1 | ||
| 20260505215000 | -17 | 0.0 | 0.0 | 0.00 | 0.28 | 0.28 | 1018.1 | ||
| 20260505214500 | -17 | 0.0 | 0.0 | 0.00 | 0.28 | 0.28 | 1018.1 | ||
| 20260505213501 | -17 | 0.0 | 0.0 | 0.00 | 0.28 | 0.28 | 1018.3 | ||
| 20260505213000 | -17 | 0.0 | 0.0 | 0.00 | 0.28 | 0.28 | 1018.2 | ||
| 20260505212500 | -17 | 0.0 | 0.0 | 0.00 | 0.28 | 0.28 | 1018.3 | ||
| 20260505211501 | -17 | 0.0 | 0.0 | 0.00 | 0.28 | 0.28 | 1018.3 | ||
| 20260505211001 | -17 | 0.0 | 0.0 | 0.00 | 0.28 | 0.28 | 1018.3 | ||
| 20260505210001 | -17 | 0.0 | 0.0 | 0.00 | 0.28 | 0.28 | 1018.2 | ||
| 20260505205000 | -17 | 0.0 | 0.0 | 0.00 | 0.28 | 0.28 | 1018.3 | ||
| 20260505204500 | -17 | 0.0 | 0.0 | 0.00 | 0.28 | 0.28 | 1018.2 | ||
| 20260505202500 | -17 | 0.0 | 0.0 | 0.00 | 0.28 | 0.28 | 1018.0 | ||
| 20260505202000 | -17 | 0.0 | 0.0 | 0.00 | 0.28 | 0.28 | 1018.1 | ||
| 20260505201500 | -17 | 0.0 | 0.0 | 0.00 | 0.28 | 0.28 | 1018.0 | ||
| 20260505201000 | -17 | 0.0 | 0.0 | 0.00 | 0.28 | 0.28 | 1018.2 | ||
| 20260505200002 | -17 | 0.0 | 0.0 | 0.00 | 0.28 | 0.28 | 1017.9 | ||
| 20260505195500 | -17 | 0.0 | 0.0 | 0.00 | 0.33 | 0.28 | 1017.9 | ||
| 20260505194959 | -17 | 0.0 | 0.0 | 0.00 | 0.33 | 0.28 | 1017.8 | ||
| 20260505194501 | -17 | 0.0 | 0.0 | 0.00 | 0.33 | 0.28 | 1017.8 | ||
| 20260505192506 | -17 | 0.0 | 0.0 | 0.00 | 0.33 | 0.28 | 1017.7 | ||
| 20260505191501 | -17 | 0.0 | 0.0 | 0.00 | 0.33 | 0.28 | 1017.8 | ||
| 20260505191003 | -17 | 0.0 | 0.0 | 0.00 | 0.33 | 0.28 | 1017.7 | ||
| 20260505190502 | -17 | 0.0 | 0.0 | 0.00 | 0.33 | 0.28 | 1017.6 | ||
| 20260505190000 | -17 | 0.0 | 0.0 | 0.00 | 0.38 | 0.28 | 1017.5 | ||
| 20260505185502 | -17 | 0.0 | 0.0 | 0.00 | 0.38 | 0.28 | 1017.5 | ||
| 20260505185000 | -17 | 0.0 | 0.0 | 0.00 | 0.38 | 0.28 | 1017.5 | ||
| 20260505183507 | -17 | 0.0 | 0.0 | 0.00 | 0.38 | 0.28 | 1017.5 | ||
| 20260505183000 | -17 | 0.0 | 0.0 | 0.00 | 0.38 | 0.28 | 1017.5 | ||
| 20260505182500 | 8 | 154 | 0.0 | 3.2 | 0.00 | 0.38 | 0.28 | 92 | 1017.4 |
| 20260505182001 | 8 | 154 | 0.0 | 3.2 | 0.00 | 0.38 | 0.28 | 92 | 1017.3 |
| 20260505181503 | 8 | 154 | 0.0 | 3.2 | 0.00 | 0.38 | 0.28 | 92 | 1017.5 |
| 20260505181001 | 8 | 154 | 1.6 | 1.6 | 0.00 | 0.38 | 0.28 | 92 | 1017.6 |
| 20260505180001 | 8 | 154 | 0.0 | 3.2 | 0.00 | 0.71 | 0.28 | 92 | 1017.5 |
| 20260505174959 | 8 | 138 | 0.0 | 3.2 | 0.00 | 0.71 | 0.28 | 91 | 1017.6 |
| 20260505174459 | 8 | 154 | 1.6 | 3.2 | 0.00 | 0.71 | 0.28 | 91 | 1017.4 |
| 20260505173959 | 8 | 220 | 0.0 | 3.2 | 0.00 | 0.71 | 0.28 | 90 | 1017.4 |
| 20260505173459 | 8 | 220 | 0.0 | 3.2 | 0.00 | 0.71 | 0.28 | 89 | 1017.4 |
| 20260505172959 | 8 | 204 | 0.0 | 3.2 | 0.00 | 0.71 | 0.28 | 89 | 1017.4 |
| 20260505172458 | 8 | 194 | 0.0 | 3.2 | 0.00 | 0.71 | 0.28 | 88 | 1017.3 |
| 20260505171959 | 8 | 213 | 0.0 | 3.2 | 0.00 | 0.71 | 0.28 | 88 | 1017.4 |
| 20260505171500 | 8 | 205 | 0.0 | 4.8 | 0.00 | 0.71 | 0.28 | 88 | 1017.4 |
| 20260505171000 | 8 | 196 | 0.0 | 4.8 | 0.00 | 0.71 | 0.28 | 87 | 1017.5 |
| 20260505170501 | 8 | 136 | 3.2 | 3.2 | 0.00 | 0.71 | 0.28 | 89 | 1017.4 |
| 20260505165459 | 8 | 214 | 0.0 | 3.2 | 0.03 | 0.89 | 0.28 | 88 | 1017.5 |
| 20260505164459 | 8 | 159 | 1.6 | 6.4 | 0.05 | 0.89 | 0.28 | 88 | 1017.6 |
| 20260505164001 | 8 | 144 | 1.6 | 6.4 | 0.05 | 0.89 | 0.28 | 86 | 1017.6 |
| 20260505163459 | 8 | 138 | 6.4 | 6.4 | 0.05 | 0.89 | 0.28 | 86 | 1017.5 |
| 20260505162459 | 7 | 207 | 6.4 | 11.3 | 0.05 | 0.89 | 0.28 | 87 | 1017.6 |
| 20260505161959 | 7 | 200 | 8.0 | 11.3 | 0.05 | 0.89 | 0.28 | 88 | 1017.6 |
| 20260505161459 | 7 | 236 | 4.8 | 11.3 | 0.05 | 0.89 | 0.28 | 86 | 1017.6 |
| 20260505160959 | 7 | 213 | 4.8 | 12.9 | 0.05 | 0.89 | 0.28 | 87 | 1017.7 |
| 20260505152959 | 8 | 265 | 6.4 | 11.3 | 0.05 | 0.81 | 0.23 | 86 | 1017.4 |
| 20260505152503 | 8 | 258 | 1.6 | 11.3 | 0.08 | 0.81 | 0.23 | 86 | 1017.3 |
| 20260505152001 | 8 | 253 | 4.8 | 11.3 | 0.10 | 0.81 | 0.23 | 87 | 1017.3 |
| 20260505151459 | 8 | 266 | 1.6 | 11.3 | 0.20 | 0.81 | 0.23 | 87 | 1017.3 |
| 20260505151002 | 8 | 173 | 8.0 | 11.3 | 0.20 | 0.81 | 0.23 | 86 | 1017.3 |
| 20260505150459 | 8 | 229 | 0.0 | 11.3 | 0.20 | 0.81 | 0.23 | 86 | 1017.1 |
| 20260505140501 | 11 | 93 | 1.6 | 4.8 | 0.00 | 0.61 | 0.03 | 77 | 1016.1 |